Regional Weather Roundup
Issued by NWS

Home | Current Version | Previous Version | Graphics & Text | Print | Product List | Glossary On
Versions: 1 2 3 4 5 6 7 8 9 10 11 12 13 14 15 16 17 18 19 20 21 22 23 24 25 26 27 28 29 30 31 32 33 34 35 36 37 38 39 40 41 42 43 44 45 46 47 48 49 50
000
ASUS43 KLOT 081203
RWRIL

ILLINOIS REGIONAL WEATHER ROUNDUP
NATIONAL WEATHER SERVICE CHICAGO/ROMEOVILLE IL
600 AM CST THU DEC 08 2016

NOTE: "FAIR" INDICATES FEW OR NO CLOUDS BELOW 12,000 FEET WITH NO
SIGNIFICANT WEATHER AND/OR OBSTRUCTIONS TO VISIBILITY.

* THESE STATIONS ARE NOT UNDER NWS QUALITY CONTROL. THEY ALSO MAY NOT
  REPORT WEATHER SUCH AS PRECIPITATION OR FOG.

ILZ001-002-007-009-015-016-024-081300-
NORTHWEST ILLINOIS

CITY           SKY/WX    TMP DP  RH WIND       PRES   REMARKS
MOLINE         PTCLDY    17   8  67 W16G25    30.31R WCI   2
6HR MIN TEMP:  17; 6HR MAX TEMP:  21;

STERLING*      FLURRIES  16  10  77 W22G28    30.26R WCI  -2
SAVANNA*       CLOUDY    16   8  70 W17G25    30.28R WCI   0
$$

ILZ003-004-008-010-011-017-018-081300-
NORTH CENTRAL ILLINOIS

CITY           SKY/WX    TMP DP  RH WIND       PRES   REMARKS
ROCKFORD       FLURRIES  15   7  70 W17G24    30.24R WCI  -1
6HR MIN TEMP:  15; 6HR MAX TEMP:  24; 6HR PCP: TRACE;

FREEPORT*      CLOUDY    14   8  75 W22G28    30.25R WCI  -4
ROCHELLE*      PTCLDY    16  10  77 W18G28    30.24R WCI  -1
$$

ILZ005-006-012>014-019>023-081300-
NORTHEAST ILLINOIS

CITY           SKY/WX    TMP DP  RH WIND       PRES   REMARKS
CHICAGO-OHARE  FLURRIES  20  12  71 W14       30.18R WCI   7
6HR MIN TEMP:  20; 6HR MAX TEMP:  24; 6HR PCP: TRACE;

CHICAGO-MIDWAY FLURRIES  22  12  65 W22G29    30.20R WCI   6
6HR MIN TEMP:  22; 6HR MAX TEMP:  25; 6HR PCP: TRACE;

AURORA         FLURRIES  19  12  74 W24       30.21R WCI   2
6HR MIN TEMP:  19; 6HR MAX TEMP:  24; 6HR PCP: TRACE;

LANSING*       FLURRIES  21  16  81 W15       30.20S WCI   8
WAUKEGAN       CLOUDY    18   9  68 W10G18    30.14R WCI   6
6HR MIN TEMP:  18; 6HR MAX TEMP:  24;

DUPAGE AIRPORT CLOUDY    20  11  68 W20       30.19R WCI   4
6HR MIN TEMP:  19; 6HR MAX TEMP:  23; 6HR PCP: TRACE;

KANKAKEE*      CLOUDY    21  13  71 W20G25    30.25R WCI   6
WHEELING       CLOUDY    21  12  68 W17G26    30.18R WCI   7
6HR MIN TEMP:  21; 6HR MAX TEMP:  24; 6HR PCP: TRACE;

MORRIS*        MOCLDY    19  12  73 W23G35    30.24R WCI   2
NORTHERLY ISL    N/A     22  13  68 W15         N/A  WCI   9
$$

LMZ740>746-081300-
SOUTHERN LAKE MICHIGAN

STATION/POSITION SKY/WX   TEMP    WIND        PRES    VSBY  WAVE
                          AIR SEA DIR/SP/G                  HT/PER
                          (F)     (DEG/KT/KT) (MB)    (MI)  (FT/S)
HARRISON CRIB              23     270/ 22/ 24   N/A
BURNHAM HARBOR             22     230/  8/ 22   N/A
CALUMET HARBOR             22     250/  8/ 17 1021.5R
BURNS HARBOR               25     270/ 21/ 29 1022.0R
MICHIGAN CITY              24     240/ 26/ 30   N/A
$$

ILZ025>027-034>036-040-047-049-050-058-095>099-081300-
WEST-CENTRAL ILLINOIS

CITY           SKY/WX    TMP DP  RH WIND       PRES   REMARKS
QUINCY         PTCLDY    17   9  70 W15G25    30.40R WCI   2
GALESBURG*     FLURRIES  18  11  76 W20G25    30.33R WCI   1
MACOMB*        MOCLDY    18  10  73 W17G26    30.38R WCI   2
JACKSONVILLE*  CLEAR     18  11  75 W15       30.38S WCI   4
PITTSFIELD*    CLEAR     19  11  70 W9G17     30.41R WCI   8
$$

ILZ028>032-037-038-041>044-048-051>054-059>061-081300-
CENTRAL ILLINOIS

CITY           SKY/WX    TMP DP  RH WIND       PRES   REMARKS
PONTIAC        FLURRIES  21  15  76 W24       30.28R WCI   4
BLOOMINGTON    FLURRIES  18  12  77 W21G29    30.29R WCI   1
DECATUR        PTCLDY    19  11  70 W14G23    30.33R WCI   6
PEORIA         FLURRIES  19  11  70 W15G24    30.33R WCI   5
6HR MIN TEMP:  19; 6HR MAX TEMP:  22; 6HR PCP: TRACE;

LACON*         FLURRIES  19  13  75 W15G23    30.30R WCI   5
LINCOLN*       MOCLDY    20  14  76 W8G20     30.34R WCI  10
SPRINGFIELD    PTCLDY    20  12  71 W14       30.36R WCI   7
6HR MIN TEMP:  20; 6HR MAX TEMP:  26;

TAYLORVILLE    CLEAR     19  13  75 W14       30.37R WCI   6
6HR MIN TEMP:  19; 6HR MAX TEMP:  25;

$$

ILZ033-039-045-046-055>057-062-063-081300-
EAST-CENTRAL ILLINOIS

CITY           SKY/WX    TMP DP  RH WIND       PRES   REMARKS
CHAMPAIGN      CLEAR     20  12  71 W20       30.30R WCI   4
RANTOUL*       CLOUDY    22  15  76 W18G24    30.28R WCI   7
MATTOON        PTCLDY    20  12  71 W10       30.32R WCI   9
PARIS*         PTCLDY    20  15  79 W15       30.32R WCI   7
$$

ILZ079-100>102-081300-
SOUTHWEST ILLINOIS

CITY           SKY/WX    TMP DP  RH WIND       PRES   REMARKS
ALTON          CLEAR     21  12  68 W13       30.42R WCI   8
BELLEVILLE     CLEAR     22  11  63 NW13G22   30.41R WCI  10
CAHOKIA*       CLEAR     23  10  57 W15       30.44R WCI  10
SPARTA*        CLEAR     22  12  64 W7        30.43S WCI  14
$$

ILZ064>066-069>071-074>076-080>082-084>086-088>090-092>094-081300-
SOUTH-CENTRAL ILLINOIS

CITY           SKY/WX    TMP DP  RH WIND       PRES   REMARKS
CARBONDALE     CLEAR     24  12  60 W6        30.43R WCI  17
6HR MIN TEMP:  24; 6HR MAX TEMP:  34;

CAIRO*         MOCLDY    27  16  63 NW14      30.44R WCI  16
EFFINGHAM*     CLEAR     22  16  76 W12       30.37R WCI  11
MARION           N/A     25  14  63 W5        30.42S WCI  19
CENTRALIA*     CLEAR     24  16  72 W10       30.39R WCI  13
SALEM*         PTCLDY    24  14  65 W10       30.38R WCI  14
METROPOLIS*    PTCLDY    28  19  71 NW7       30.42R WCI  20
$$

ILZ067-068-072-073-078-083-087-091-081300-
SOUTHEAST ILLINOIS

CITY           SKY/WX    TMP DP  RH WIND       PRES   REMARKS
LAWRENCEVILLE  PTCLDY    23  14  68 W9        30.36R WCI  13
FLORA*         CLEAR     24  14  65 W12       30.38R WCI  13
FAIRFIELD*     PTCLDY    24  15  67 CALM      30.39R
HARRISBURG*    CLEAR     25  16  66 W9        30.42R WCI  16
ROBINSON*      PTCLDY    23  15  71 W16       30.36R WCI   9
CARMI*         PTCLDY    25  18  73 W10       30.39R WCI  15
$$

ABBREVIATIONS USED IN REMARKS
   TC - TEMPERATURE IN CELSIUS
  WCI - WIND CHILL INDEX
   HX - HEAT INDEX
  VSB - VISIBILITY
$$





USA.gov is the U.S. government's official web portal to all federal, state and local government web resources and services.